Flag for Germany Weather past 2 weeks in Ehingen (Donau), Baden-Württemberg, Germany

Now
54 °F

Fog.


Feels Like: 54 °F
Forecast: 54 / 67 °F
Wind: 1 mph from West

Location: Laupheim Airport

Current Time: Aug 28, 2014 at 10:12:04 AM

Latest Report: Aug 28, 2014 at 9:47 AM


Visibility: 0 mi

Pressure: 30.12 "Hg

Humidity: 100%

Dew point: 54 °F

Location of Ehingen (Donau)Location

Historic Weather in Ehingen (Donau) — Graph

°F

Ehingen (Donau) temperature yesterday

Maximum temperature yesterday: 63 °F (at 3:20 PM)
Minimum temperature yesterday: 55 °F (at 3:20 AM)
Average temperature yesterday: 59 °F

Past Weeks' High & Low Weather Summary

 TemperatureHumidityPressure
High68 °F (Aug 17, 3:20 PM)100% (Aug 13, 8:20 AM)30.18 "Hg (Aug 13, 8:20 AM)
Low45 °F (Aug 22, 6:20 AM)43% (Aug 19, 5:20 PM)29.68 "Hg (Aug 13, 1:20 PM)
Average57 °F78%29.99 "Hg
* Reported Aug 13 8:20 AM — Aug 28 8:20 AM, Ehingen (Donau), Weather by CustomWeather, © 2014

Note: Actual official high and low records may vary slightly from our data, if they occured in-between our weather recording intervals... More about our weather records

Advertising

Ehingen (Donau) weather history for previous 24 hours

 ConditionsComfort  
Time TempWeatherWind HumidityBarometerVisibility
8:20 AM
Aug 28
52 °FFog.1 mph100%30.09 "Hg0 mi
7:20 AM52 °FFog.2 mph100%30.09 "Hg0 mi
6:20 AM52 °FFog.1 mph100%30.09 "Hg0 mi
5:20 AM52 °FFog.2 mph100%30.09 "Hg0 mi
4:20 AM52 °FFog.1 mph100%30.07 "Hg0 mi
3:20 AM52 °FFog.No wind100%30.09 "Hg1 mi
2:20 AM52 °FFog.No wind94%30.09 "Hg1 mi
1:20 AM52 °FFog.3 mph100%30.09 "Hg1 mi
12:20 AM54 °FPassing clouds.No wind100%30.09 "HgN/A
11:20 PM
Aug 27
55 °FPassing clouds.No wind100%30.09 "HgN/A
10:20 PM57 °FPassing clouds.1 mph94%30.07 "HgN/A
9:20 PM57 °FPassing clouds.2 mph94%30.07 "HgN/A
8:20 PM59 °FPartly sunny.3 mph94%30.07 "HgN/A
7:20 PM61 °FBroken clouds.6 mph83%30.07 "HgN/A
6:20 PM61 °FPartly sunny.7 mph88%30.07 "HgN/A
5:20 PM63 °FBroken clouds.5 mph77%30.07 "HgN/A
4:20 PM63 °FBroken clouds.3 mph77%30.04 "HgN/A
3:20 PM63 °FBroken clouds.6 mph73%30.04 "HgN/A
2:20 PM61 °FSprinkles. Broken clouds.5 mph83%30.04 "HgN/A
1:20 PM61 °FBroken clouds.5 mph83%30.01 "HgN/A
12:20 PM57 °FSprinkles. Broken clouds.3 mph94%30.01 "HgN/A
11:49 AM61 °FSprinkles. Fog.8 mph83%30.01 "Hg2 mi
11:20 AM61 °FScattered showers. Broken clouds.14 mph83%29.98 "Hg3 mi
10:20 AM59 °FBroken clouds.12 mph88%29.98 "HgN/A
Weather by CustomWeather, © 2014

See weather overviewHow to use our weather pages